Regional Weather Roundup
Issued by NWS Northern Indiana

Home | Current Version | Previous Version | Text Only | Print | Product List | Glossary On
Versions: 1 2 3 4 5 6 7 8 9 10 11 12 13 14 15 16 17 18 19 20 21 22 23 24 25 26 27 28 29 30 31 32 33 34 35 36 37 38 39 40 41 42 43 44 45 46 47 48 49 50
000
ASUS43 KIWX 062310
RWRIWX

KIWX WEATHER ROUNDUP
NATIONAL WEATHER SERVICE NORTHERN INDIANA
600 PM EST SAT FEB 06 2016

NOTE: "FAIR" INDICATES FEW OR NO CLOUDS BELOW 12,000 FEET WITH NO
SIGNIFICANT WEATHER AND/OR OBSTRUCTIONS TO VISIBILITY.

* THESE STATIONS ARE NOT UNDER NWS QUALITY CONTROL. THEY ALSO MAY NOT
  REPORT WEATHER SUCH AS PRECIPITATION OR FOG.

INZ001>027-070000-
NORTHERN INDIANA

CITY           SKY/WX    TMP DP  RH WIND       PRES   REMARKS
GARY*          PTCLDY    41  27  56 SW12      30.17F
VALPARAISO     CLEAR     38  28  67 SW7       30.18S
MICHIGAN CITY* CLEAR     36  28  75 SW6       30.18S
LAPORTE*       CLEAR     38  29  69 SW8       30.18S
SOUTH BEND     PTCLDY    37  26  64 SW9       30.18F
ELKHART*         N/A     37  27  65 MISG      30.18F
GOSHEN         CLOUDY    36  27  69 SW10      30.18F
MONTICELLO*    CLEAR     38  25  58 S5        30.19F
LOGANSPORT*    CLEAR     34  27  75 S6        30.21F WCI  29
ROCHESTER*     CLEAR     39  27  60 SW6       30.19F
WARSAW*        PTCLDY    36  28  75 SW5       30.19F
FORT WAYNE     PTCLDY    35  27  72 SW7       30.21S WCI  29
HUNTINGTON*    CLEAR     36  22  56 CALM      30.20F
PERU/GRISSOM   CLEAR     36  27  72 SW7       30.19S
MARION*        CLEAR     36  21  53 SW6       30.22S

$$
INZ028>050-070000-
CENTRAL INDIANA

CITY           SKY/WX    TMP DP  RH WIND       PRES   REMARKS
LAFAYETTE      CLEAR     41  27  57 S6        30.20F
KOKOMO*          N/A     37  27  65 SW8       30.21F
MUNCIE*        CLEAR     41  24  51 SW8       30.21F
INDIANAPOLIS   CLEAR     41  23  48 SW8       30.21F

$$
MIZ043>046-050>051-056>058-064>065-071>073-077>080-070000-
SOUTHWEST LOWER MICHIGAN

CITY           SKY/WX    TMP DP  RH WIND       PRES   REMARKS
BATTLE CREEK   CLOUDY    34  22  61 SW8       30.15F WCI  27
BENTON HARBOR  CLOUDY    37  27  67 SW8       30.16F
COLDWATER*     MOCLDY    34  25  68 SW6       30.16F WCI  29
HILLSDALE*     CLEAR     33  20  57 SW7       30.16S WCI  27
HOLLAND        CLOUDY    35  28  75 SW10      30.15F WCI  27
GRAND RAPIDS   CLOUDY    33  26  75 SW9       30.14F WCI  25
KALAMAZOO      CLOUDY    36  24  62 SW6       30.16F
STURGIS*       PTCLDY    33  27  77 SW7       30.16S WCI  27
THREE RIVERS*  FAIR      36  27  69 SW5       30.17S

$$
OHZ001>008-015>018-024>025-070000-
NORTHWEST OHIO

CITY           SKY/WX    TMP DP  RH WIND       PRES   REMARKS
DEFIANCE       CLEAR     36  23  59 SW7       30.20F
FINDLAY        CLEAR     34  22  61 SW8       30.20S WCI  27
TOLEDO EXPRESS CLEAR     34  21  59 SW8       30.19S WCI  27
TOLEDO METCALF CLEAR     34  23  64 SW7       30.21S WCI  28
LIMA           CLEAR     36  21  54 SW8       30.20F

$$
AND FOR LAKE MICHIGAN COASTAL AND OPEN LAKE BUOY OBSERVATIONS

STATION/POSITION TEMP    WIND        PRES    VSBY  WAVE
                 AIR SEA DIR/SP/G                  HT/PER
                 (F)     (DEG/KT/KT) (MB)    (MI)  (FT/S)
CALUMET HARBOR    41                 1020.7F
MICHIGAN CITY     39     200/ 14/ 16   N/A
BURNS HARBOR      40     230/ 11/ 16 1022.4F
SAINT JOSEPH      36     170/  8/ 10 1022.0S

$$
&&



USA.gov is the U.S. government's official web portal to all federal, state and local government web resources and services.